Goshen, IN

5:23 AM EDT on March 23, 2017 (GMT -0400)
Goshen Municipal

Weather History for KGSH - February, 2014

Change the Weather History Date:

Tuesday, February 11, 2014

  Actual Average Record
Temperature  
Mean Temperature 2 °F -  
Max Temperature 14 °F 32 °F 73 °F (1999)
Min Temperature -11 °F 17 °F -11 °F (2014)
Degree Days  
Heating Degree Days 64    
Moisture  
Dew Point -4 °F    
Average Humidity 78    
Maximum Humidity 100    
Minimum Humidity 64    
Precipitation  
Precipitation 0.00 in - - ()
Sea Level Pressure  
Sea Level Pressure 30.50 in    
Wind  
Wind Speed 2 mph (SSW)    
Max Wind Speed 6 mph    
Max Gust Speed -    
Visibility 7 miles    
Events      
Averages and records for this station are not official NWS values.
T = Trace of Precipitation, MM = Missing Value Source: NWS Daily Summary

Daily Weather History Graph

Daily Weather History Graph

Search for Another Location

Airport or City:

Trip Planner

Search our weather history database for the weather conditions in past years. The results will help you decide how hot, cold, wet, or windy it might be!

Date:

Astronomy

Feb. 11, 2014 Rise Set
Actual Time 7:43 AM EST 6:11 PM EST
Civil Twilight 7:14 AM EST 6:40 PM EST
Nautical Twilight 6:42 AM EST 7:13 PM EST
Astronomical Twilight 6:10 AM EST 7:45 PM EST
Moon 3:30 PM EST (2/11) 5:21 AM EST (2/11)
Length of Visible Light 11h 25m
Length of Day
10h 28m
Waxing Gibbous, 90% of the Moon is Illuminated
Feb 11
Waxing Gibbous
Feb 14
Full
Feb 22
Last Quarter
Mar 1
New
Mar 8
First Quarter

Hourly Weather History & Observations

Time (EST) Temp. Windchill Dew Point Humidity Pressure Visibility Wind Dir Wind Speed Gust Speed Precip Events Conditions
12:53 AM 1.0 °F -6.7 °F -4.0 °F 79% 30.47 in 9.0 mi SW 3.5 mph - N/A   Overcast
1:53 AM 3.0 °F -8.0 °F -2.0 °F 80% 30.47 in 10.0 mi West 5.8 mph - N/A   Overcast
2:53 AM 1.9 °F -5.6 °F -2.9 °F 80% 30.46 in 8.0 mi WNW 3.5 mph - N/A   Overcast
3:53 AM -0.0 °F - -5.1 °F 79% 30.45 in 8.0 mi Calm Calm - 0.00 in   Overcast
4:21 AM -2.2 °F -12.5 °F -7.6 °F 78% 30.39 in 8.0 mi SSW 4.6 mph - N/A   Scattered Clouds
4:53 AM -5.1 °F -15.8 °F -8.0 °F 87% 30.47 in 7.0 mi SW 4.6 mph - N/A   Clear
5:53 AM -5.1 °F - -9.9 °F 80% 30.48 in 6.0 mi Calm Calm - N/A   Haze
6:53 AM -8.0 °F - -11.9 °F 83% 30.51 in 6.0 mi Calm Calm - N/A   Clear
7:53 AM -11.9 °F - -16.1 °F 82% 30.53 in 5.0 mi Calm Calm - N/A   Clear
8:53 AM -9.9 °F - -11.0 °F 95% 30.55 in 5.0 mi Calm Calm - N/A   Clear
9:53 AM -0.9 °F - -4.0 °F 87% 30.56 in 4.0 mi Calm Calm - N/A   Clear
10:16 AM -2.2 °F - -2.2 °F 100% 30.49 in 4.0 mi Calm Calm - N/A   Mostly Cloudy
10:53 AM 1.9 °F - -0.0 °F 91% 30.57 in 4.0 mi Calm Calm - N/A   Overcast
11:53 AM 7.0 °F - 1.0 °F 77% 30.56 in 6.0 mi Calm Calm - N/A   Haze
12:53 PM 12.0 °F - 3.0 °F 67% 30.54 in 8.0 mi Calm Calm - N/A   Mostly Cloudy
1:04 PM 12.2 °F - 3.2 °F 67% 30.48 in 10.0 mi Calm Calm - N/A   Scattered Clouds
1:53 PM 12.9 °F - 3.9 °F 67% 30.52 in 9.0 mi Calm Calm - N/A   Clear
2:53 PM 14.0 °F 8.2 °F 5.0 °F 67% 30.51 in 10.0 mi South 3.5 mph - N/A   Partly Cloudy
3:16 PM 12.2 °F 6.1 °F 3.2 °F 67% 30.45 in 10.0 mi SSW 3.5 mph - N/A   Mostly Cloudy
3:27 PM 12.2 °F 6.1 °F 3.2 °F 67% 30.44 in 10.0 mi South 3.5 mph - N/A   Scattered Clouds
3:53 PM 12.9 °F 3.8 °F 3.9 °F 67% 30.51 in 10.0 mi SSW 5.8 mph - N/A   Clear
4:53 PM 12.0 °F 4.1 °F 1.9 °F 64% 30.51 in 10.0 mi SSW 4.6 mph - N/A   Clear
5:53 PM 10.0 °F 3.6 °F 1.0 °F 67% 30.50 in 10.0 mi South 3.5 mph - N/A   Clear
6:53 PM 6.1 °F - -0.0 °F 76% 30.51 in 9.0 mi Calm Calm - N/A   Clear
7:53 PM -0.9 °F - -7.1 °F 75% 30.51 in 7.0 mi Calm Calm - N/A   Clear
8:53 PM -2.0 °F - -6.0 °F 83% 30.49 in 6.0 mi Calm Calm - N/A   Clear
9:53 PM -9.0 °F - -13.0 °F 83% 30.50 in 6.0 mi Calm Calm - N/A   Clear
10:53 PM -9.0 °F -18.2 °F -14.1 °F 79% 30.50 in 5.0 mi SE 3.5 mph - N/A   Haze
11:53 PM -2.9 °F -13.3 °F -7.1 °F 82% 30.48 in 5.0 mi SSE 4.6 mph - N/A   Clear